Flag for Canada

Past Weather in Rankin Inlet, Nunavut, Canada — Yesterday and Last 2 Weeks

Now
52 °F

Passing clouds.


Feels Like: 51 °F
Forecast: 52 / 43 °F
Wind: 3 mph from Northeast

Location: Rankin Inlet

Current Time: Jul 8, 2020 at 12:56:04 am

Latest Report: Jul 8, 2020 at 12:27 am


Visibility: 15 mi

Pressure: 29.53 "Hg

Humidity: 94%

Dew Point: 50 °F

Location of Rankin InletLocation

Past Weather in Rankin Inlet — Graph

°F

Rankin Inlet Temperature Yesterday

Maximum temperature yesterday: 52 °F (at 11:25 pm)
Minimum temperature yesterday: 41 °F (at 12:00 am)
Average temperature yesterday: 46 °F

High & Low Weather Summary for the Past Weeks

 TemperatureHumidityPressure
High70 °F (Jun 23, 1:00 pm)100% (Jun 25, 5:00 am)30.34 "Hg (Jun 25, 5:00 am)
Low36 °F (Jun 26, 5:00 pm)43% (Jun 23, 1:00 pm)29.39 "Hg (Jul 7, 11:15 am)
Average48 °F84%29.89 "Hg
* Reported Jun 22 11:00 pm — Jul 7 11:25 pm, Rankin Inlet. Weather by CustomWeather, © 2020

Note: Actual official high and low records may vary slightly from our data, if they occured in-between our weather recording intervals... More about our weather records

Rankin Inlet Weather History for the Previous 24 Hours

Scroll right to see more
 ConditionsComfort  
Time TempWeatherWind HumidityBarometerVisibility
11:25 pm
Tue, Jul 7
52 °FPassing clouds.6 mph94%29.51 "Hg15 mi
11:00 pm50 °FPartly sunny.5 mph100%29.51 "Hg15 mi
10:41 pm50 °FPartly sunny.3 mph94%29.50 "Hg15 mi
10:00 pm48 °FLow clouds.3 mph94%29.49 "Hg15 mi
9:47 pm48 °FLow clouds.5 mph94%29.49 "Hg15 mi
9:00 pm48 °FLow clouds.2 mph94%29.49 "Hg15 mi
8:49 pm48 °FLow clouds.2 mph100%29.49 "Hg15 mi
8:00 pm48 °FFog.2 mph94%29.48 "Hg5 mi
7:00 pm48 °FFog.5 mph94%29.46 "Hg5 mi
6:00 pm48 °FBroken clouds.3 mph94%29.45 "Hg15 mi
5:00 pm46 °FFog.5 mph100%29.44 "Hg5 mi
4:37 pm48 °FFog.3 mph94%29.43 "Hg5 mi
4:00 pm50 °FDrizzle. Fog.5 mph100%29.42 "Hg2 mi
3:29 pm50 °FDrizzle. Fog.7 mph94%29.41 "Hg2 mi
3:00 pm48 °FDrizzle. Fog.7 mph100%29.41 "Hg1 mi
2:37 pm48 °FFog.3 mph100%29.41 "Hg1 mi
2:28 pm48 °FFog.3 mph94%29.41 "Hg1 mi
2:14 pm48 °FFog.5 mph94%29.40 "Hg0 mi
1:15 pm50 °FFog.3 mph100%29.39 "Hg1 mi
1:00 pm50 °FLight rain. Fog.No wind100%29.39 "Hg2 mi
12:49 pm50 °FLight rain. Fog.No wind100%29.39 "Hg2 mi
12:14 pm50 °FLight rain. Fog.2 mph94%29.39 "Hg2 mi
12:00 pm48 °FLight rain. Fog.3 mph100%29.39 "Hg1 mi
11:15 am48 °FLight rain. Fog.5 mph94%29.39 "Hg1 mi
11:00 am46 °FLight rain. Fog.5 mph100%29.39 "Hg1 mi
10:41 am46 °FLight rain. Fog.8 mph93%29.39 "Hg1 mi
10:09 am46 °FLight rain. Fog.6 mph100%29.39 "Hg1 mi
8:00 am46 °FLight rain. More clouds than sun.7 mph93%29.40 "Hg15 mi
7:23 am45 °FLight rain. Broken clouds.8 mph100%29.40 "Hg15 mi
7:00 am45 °FLight rain. Mostly cloudy.7 mph100%29.40 "Hg15 mi
6:42 am43 °FLight rain. Partly sunny.8 mph100%29.41 "Hg15 mi
6:00 am43 °FFog.7 mph100%29.41 "Hg5 mi
5:27 am43 °FPartly sunny.9 mph100%29.41 "Hg8 mi
5:00 am43 °FFog.9 mph100%29.41 "Hg6 mi
4:24 am43 °FFog.9 mph100%29.42 "Hg1 mi
4:00 am43 °FPartly sunny.12 mph100%29.43 "Hg10 mi
3:41 am43 °FLight rain. Broken clouds.10 mph100%29.43 "Hg10 mi
3:09 am43 °FLow clouds.8 mph93%29.43 "Hg10 mi
2:31 am41 °FFog.8 mph100%29.44 "Hg3 mi
2:00 am41 °FFog.8 mph100%29.45 "Hg2 mi
1:48 am41 °FFog.9 mph100%29.46 "Hg1 mi
1:24 am41 °FDrizzle. Fog.13 mph100%29.46 "Hg1 mi
1:09 am41 °FDrizzle. Fog.10 mph100%29.47 "Hg0 mi
1:00 am41 °FFog.10 mph100%29.47 "Hg0 mi
12:00 am41 °FFog.12 mph100%29.49 "Hg0 mi
Weather by CustomWeather, © 2020

See weather overview